Regional Weather Roundup
Issued by NWS Green Bay, WI

Home | Current Version | Previous Version | Text Only | Print | Product List | Glossary On
Versions: 1 2 3 4 5 6 7 8 9 10 11 12 13 14 15 16 17 18 19 20 21 22 23 24 25 26 27 28 29 30 31 32 33 34 35 36 37 38 39 40 41 42 43 44 45 46 47 48 49 50
000
ASUS43 KGRB 211801
RWRGRB

NORTH-CENTRAL AND NORTHEAST WISCONSIN REGIONAL WEATHER ROUNDUP
NATIONAL WEATHER SERVICE GREEN BAY WI
100 PM CDT MON AUG 21 2017

WIZ005-009-010>012-018-019-211900-
NORTH CENTRAL WISCONSIN

CITY           SKY/WX    TMP DP  RH WIND       PRES   REMARKS
IRONWOOD       MOSUNNY   73  51  46 W5        30.00F
MANITOWISH WTR NOT AVBL
ARBOR VITAE    NOT AVBL
EAGLE RIVER    NOT AVBL
LAND O LAKES   NOT AVBL
RHINELANDER    MOSUNNY   75  64  68 SE8       30.02F
PHILLIPS       NOT AVBL
ANTIGO         NOT AVBL
TOMAHAWK       NOT AVBL
MERRILL        NOT AVBL
$$

WIZ013-073-211900-
NORTHEAST WISCONSIN

CITY           SKY/WX    TMP DP  RH WIND       PRES   REMARKS
IRON MOUNTAIN  CLOUDY    77  58  51 SE5       30.00F
MARINETTE      PTSUNNY   74  60  61 E5        30.02F
$$

WIZ017-030-035>037-045-211900-
CENTRAL WISCONSIN

CITY           SKY/WX    TMP DP  RH WIND       PRES   REMARKS
MEDFORD        NOT AVBL
WAUSAU         CLOUDY    76  67  73 SE7       29.97F
MOSINEE        MOSUNNY   75  70  83 E6        30.00F
MARSHFIELD     CLOUDY    78  68  71 SE7       29.97F
WISC RAPIDS    CLOUDY    80  68  66 S8        29.98F
STEVENS POINT  NOT AVBL
WAUPACA        NOT AVBL
SHAWANO        NOT AVBL
CLINTONVILLE   NOT AVBL
WAUTOMA        MOSUNNY   78  70  76 SE7       29.99F
$$

WIZ038-039-048-051-211900-
FOX VALLEY

CITY           SKY/WX    TMP DP  RH WIND       PRES   REMARKS
NWS GREEN BAY  SUNNY     78  71  79 S6        30.01F
APPLETON       PTSUNNY   77  64  65 SW5       30.01F
OSHKOSH        CLOUDY    76  67  73 E6        29.98F
FOND DU LAC    CLOUDY    76  65  68 SE6       30.01F
$$

WIZ022-050-052-211900-
EAST CENTRAL WISCONSIN

CITY           SKY/WX    TMP DP  RH WIND       PRES   REMARKS
EPHRAIM        NOT AVBL
WASHINGTON ISL NOT AVBL
STURGEON BAY   PTSUNNY   76  72  87 CALM      30.02F
MANITOWOC      NOT AVBL
SHEBOYGAN      CLOUDY    77  69  76 CALM      30.03F
$$

LMZ563-521-522-541>543-211900-
LAKESHORE

STATION/POSITION TIME  TEMP    WIND        PRES    VSBY  WAVE
                       AIR SEA DIR/SP/G                  HT/PER
                 (UTC) (F)     (DEG/KT/KT) (MB)    (MI)  (FT/S)
SHEBOYGAN LKSHOR 1700   73     160/  6/  7 1017.3F
KEWAUNEE LKSHORE 1730   71     180/  7/  7 1016.2F
NORTHPORT PIER   1740   72      90/  3/  3 1015.9F
N MID LAKE BUOY  1650   69 69  190/  2/  4 1017.2F         1/ 4
S GREEN BAY BUOY 1730   72 73  180/  6/  8 1016.3F
SISTER BAY LKSHO 1718   74      70/  8/ 10   N/A
MENOMINEE LKSHOR 1730   72     140/  4/  4 1016.2F
$$




USA.gov is the U.S. government's official web portal to all federal, state and local government web resources and services.